Lid_Strength_Index
9 13 14 12 11 10 11 12 12 11 9 10 11 11 10 9 8 7 6 6 5 4 4 4 3 3 2 2 2 2 2 2 2 3 3 3 3 3 3 2 1 1 0 1
11 14 10 9 9 10 11 13 13 11 9 10 11 11 10 9 9 8 7 6 6 5 5 4 4 3 3 3 2 2 2 2 2 2 3 3 4 3 3 1 1 0 0 1
13 11 8 9 11 11 12 13 12 12 10 9 11 12 11 9 8 7 7 6 6 5 5 4 4 3 3 3 3 2 2 2 2 1 2 2 2 2 2 2 1 1 0 1
11 9 10 10 11 10 13 9 10 11 12 16 10 17 13 11 10 9 8 7 7 6 5 4 4 3 3 3 3 3 2 2 2 1 2 3 3 3 3 2 2 1 1 1
12 11 11 11 10 8 11 8 9 10 12 13 13 16 15 11 11 10 9 8 7 6 5 5 5 5 5 3 4 3 2 2 2 2 2 2 3 3 2 2 2 2 2 1
9 6 7 8 7 7 7 9 9 10 12 16 13 14 15 13 11 10 8 7 6 6 5 5 5 5 4 5 3 3 3 2 2 2 2 3 3 3 3 3 3 3 3 2
10 9 7 7 10 8 9 13 18 19 18 17 12 13 13 11 9 8 8 7 6 7 6 5 5 4 4 5 5 4 3 3 2 2 2 2 2 2 3 3 3 3 3 3
14 15 9 7 9 11 11 13 18 22 20 19 12 15 13 9 8 6 6 6 6 7 6 6 5 4 4 4 4 5 5 3 2 2 2 2 2 2 2 2 2 3 3 3
14 13 7 7 7 8 11 14 11 17 15 18 15 12 9 8 9 8 8 7 7 7 6 6 5 4 4 4 3 3 3 3 3 2 2 2 3 2 3 3 3 3 3 2
10 15 9 8 7 7 10 9 16 15 21 21 16 14 15 12 11 9 9 8 7 6 5 5 5 5 5 5 4 3 3 3 3 2 2 2 2 2 3 3 3 3 2 1
10 12 12 9 10 11 10 14 14 14 16 19 20 17 10 11 10 10 8 8 7 7 5 5 5 4 4 4 4 3 3 3 3 2 2 2 2 2 3 2 2 1 1 1
10 13 15 13 8 7 9 11 13 17 18 16 17 16 9 9 8 8 8 7 7 7 6 5 6 4 5 4 4 4 3 3 3 2 2 2 2 2 2 2 2 1 2 2
10 14 17 15 11 10 12 11 11 12 13 17 18 16 8 8 8 7 8 7 7 7 6 6 5 5 5 4 4 4 3 3 3 2 2 2 3 3 3 2 2 2 2 2
8 12 15 18 15 12 14 12 11 12 17 15 15 13 10 10 9 8 7 7 7 8 7 6 7 5 5 4 4 4 3 3 3 2 3 3 3 3 3 2 2 2 1 2
10 15 13 12 12 11 11 11 11 12 12 15 12 12 10 10 9 8 7 7 8 8 8 8 6 5 5 4 4 4 3 3 3 3 3 3 2 2 2 2 2 2 2 2
9 14 13 14 11 11 12 11 11 11 10 11 11 12 8 7 7 7 8 7 8 8 7 6 5 5 5 4 4 4 3 3 2 3 3 2 2 2 2 3 2 2 2 2
12 13 14 17 12 12 15 12 12 11 11 11 14 11 8 8 7 8 8 8 9 7 7 6 5 5 4 4 4 4 3 3 3 3 3 2 2 2 2 2 2 2 2 2
12 13 13 17 14 20 12 9 9 11 10 9 10 9 8 8 7 6 5 7 7 7 6 5 5 5 4 3 3 3 3 3 3 3 3 3 2 2 2 2 2 2 2 2
9 12 15 18 18 14 11 11 12 13 13 9 10 9 8 7 7 7 5 5 5 5 5 5 4 4 4 4 3 3 3 3 3 3 3 2 2 2 2 3 2 2 2 3
10 10 14 16 19 21 14 10 8 9 16 9 8 9 9 8 12 10 6 6 5 4 5 4 4 4 3 3 3 4 4 3 3 3 3 2 2 2 2 2 2 2 2 2
14 14 15 16 17 15 10 8 7 16 15 9 8 8 8 10 8 7 6 6 5 4 4 4 4 4 4 3 3 3 4 4 3 2 2 2 2 2 2 2 2 2 2 2
15 15 16 15 17 19 8 9 13 10 8 8 8 7 8 8 7 6 6 5 5 5 4 4 4 4 3 3 3 4 4 3 2 2 2 2 2 2 2 2 2 2 3 3
15 13 14 14 14 9 7 8 7 7 8 7 7 7 7 7 7 6 6 5 5 5 4 4 4 4 3 3 3 4 3 2 2 2 2 2 2 2 2 3 2 3 2 3
10 9 12 12 10 9 8 6 7 6 7 7 6 6 6 6 6 6 5 5 5 4 5 4 4 4 4 3 3 3 2 2 2 3 3 2 2 2 2 2 2 3 3 3
9 9 11 11 9 8 7 8 7 6 6 6 5 5 6 6 6 5 5 5 5 4 4 4 4 4 4 3 3 2 2 2 3 3 3 3 3 4 5 6 6 3 5 4
8 10 12 13 9 9 9 7 6 7 7 6 6 6 5 5 5 5 5 5 4 5 4 4 4 4 3 3 3 2 2 2 2 3 3 3 3 3 4 5 6 13 12 13